Tracking 20232 objects as of 21-Jan-2020
HD Live streaming from Space Station
objects crossing your sky now

SL-14 R/B

Track SL-14 R/B now!
10-day predictions
SL-14 R/B is classified as:


NORAD ID: 16882
Int'l Code: 1986-055B
Perigee: 612.0 km
Apogee: 640.7 km
Inclination: 82.5 °
Period: 97.1 minutes
Semi major axis: 6997 km
RCS: 4.759 m2 (large)
Launch date: July 28, 1986
Source: Commonwealth of Independent States (former USSR) (CIS)
Launch site: PLESETSK MISSILE AND SPACE COMPLEX (PKMTR)

Note: This is a ROCKET BODY
aabbcc
Your satellite tracking list
Your tracking list is empty




NASA's NSSDC Master Catalog

Two Line Element Set (TLE):
1 16882U 86055B   20021.53738510  .00000060  00000-0  44003-5 0  9998
2 16882  82.5200  65.6931 0020478 157.2853 350.7677 14.83214817808455
Source of the keplerian elements: AFSPC